STARLINK-1212, 45223

Orbit data source: Space-Track

STARLINK-1212, 45223 is a payload satellite owned by SpaceX/Seattle (US) in LEO that was launched on Mon, 17 Feb 2020 UTC via an FALCON 9 launch vehicle from the Air Force Eastern Test Range (AFETR). Payload-class satellites include a variety of spacecraft equipped with specific instruments for various scientific and technological missions. These include communications satellites like Starlink; space stations such as the ISS; scientific satellites like the Hubble; Earth observation satellites from companies like Planet Labs, Umbra, and HawkEye 360; GPS; miniature CubeSats for education and research; and military/defense satellites.

Loading next visibility...
Identifier
45223, 2020-012AX
Orbit
LEO
Country
Flag of USUS
Related business
Manufacturer
SpaceX/Seattle
Mission
Partially operational Commercial Communications
Bus & Motor
STARLINK, Unknown motor
Mass
260 kg wet, ~248 kg dry
Launch date (UTC)
2020-02-17 (7 years ago)
Launch vehicle
FALCON 9
Launch site
Air Force Eastern Test Range (AFETR)
Object type
Payload
Rocket body
Debris
Shape & HBR
Box + 1 Pan, 10.1 m
Radar Cross Section
13.562 m², Large (>1 m²)

Expand to show TLE details & history
Last TLE update: 9 hours ago

TLE from 9 hours ago
0 STARLINK-1212
1 45223U 20012AX  26253.95813277  .00099724  00000-0  46528-3 0  9990
2 45223  53.0365 156.7393 0005123 102.4532 257.7064 15.82534992364701
Epoch: 2026-09-10T22:59Z
TLE epoch observation values (Epoch: 2026-09-10T22:59:42.671Z)
Latitude
0.00004°
Longitude
-178.17684°
Altitude
324.914 km
Speed
7.714 km/s
True Right ascension
10h 26m 57s
True Declination
0° 00' 00"
Sunlit
Object was in daylight at epoch
Visualization orbit readout
Latitude
Unknown
Longitude
Unknown
Altitude
Unknown
Speed
Unknown
Apparent Right ascension
Unknown
Apparent Declination
Unknown
Sunlit
N/A
Visualization observer readout
Local Sidereal Time
00:11:50
Azimuth
Unknown
Elevation
Unknown
Doppler factor
Unknown
Orbital elements
Apogee altitude
326.99 km
Perigee altitude
320.124 km
Semi-major axis
6,701.694 km
Eccentricity
0.00051
Inclination
53.0365°
RAAN
156.7393°
Arg. of periapsis
102.4532°
True anomaly
257.64905°
Mean anomaly
257.7064°
Eccentric anomaly
257.67772°
Mean motion
3.95609 °/min
Orbital period
91 mins
BSTAR
0.00046528
Loading maneuver chart data...
Computing Atmospheric mass density...

Documentation

Showing up to 5 results
|